Location: Pilipovskiye Korichintsy
(49.1833°N, 27.4667°E)
Time: 00:41:41
(UTC+00:00)

SL-08 R/B - Visible Passes

Search period start: 24 October 2020 00:00
Search period end: 03 November 2020 00:00
Orbit: 674 x 739 km, 98.4° (Epoch: 23 October)

Date Brightness Start Highest point End Pass type
(mag) Time Alt. Az. Time Alt. Az. Time Alt. Az.
25 Oct 5.8 15:35:27 10° N 15:39:09 22° WNW 15:42:53 10° WSW visible
26 Oct 6.4 16:21:43 10° NW 16:22:35 10° NW 16:23:28 10° WNW visible
27 Oct 5.6 15:25:30 10° N 15:29:32 26° WNW 15:33:35 10° WSW visible
28 Oct 6.2 16:10:58 10° NNW 16:13:01 13° NW 16:15:04 10° WNW visible
30 Oct 6.1 16:00:43 10° NNW 16:03:26 15° NW 16:06:09 10° W visible
01 Nov 6.0 15:50:37 10° NNW 15:53:49 18° WNW 15:57:04 10° W visible
